This is the latest recevied weather packets stored in our database for station/object OM8AKX-4. If no packets are shown the sender has not sent any weather packets the latest 10 day(s).
| Time | Temp. | Humidity | Pressure | Rain* | Wind** | Luminosity | Snow |
|---|---|---|---|---|---|---|---|
| 1778095632 | 11.11° C | 81% | 872.6 hPa | - | - | - | - |
| 1778094734 | 11.11° C | 78% | 872.7 hPa | - | - | - | - |
| 1778093834 | 11.11° C | 76% | 872.5 hPa | - | - | - | - |
| 1778092934 | 11.11° C | 74% | 872.4 hPa | - | - | - | - |
| 1778092033 | 11.11° C | 72% | 872.4 hPa | - | - | - | - |
| 1778091133 | 11.11° C | 73% | 872.2 hPa | - | - | - | - |
| 1778090232 | 11.67° C | 72% | 872.3 hPa | - | - | - | - |
| 1778089332 | 11.67° C | 71% | 872.4 hPa | - | - | - | - |
| 1778088432 | 12.22° C | 71% | 872.4 hPa | - | - | - | - |
| 1778087532 | 12.78° C | 69% | 872.5 hPa | - | - | - | - |
| 1778086632 | 12.78° C | 68% | 872.6 hPa | - | - | - | - |
| 1778085732 | 13.33° C | 67% | 872.7 hPa | - | - | - | - |
| 1778084831 | 13.33° C | 68% | 872.7 hPa | - | - | - | - |
| 1778083931 | 13.33° C | 68% | 872.7 hPa | - | - | - | - |
| 1778083031 | 13.33° C | 67% | 872.7 hPa | - | - | - | - |
| 1778082131 | 13.89° C | 65% | 872.7 hPa | - | - | - | - |
| 1778081231 | 13.89° C | 67% | 872.8 hPa | - | - | - | - |
| 1778080331 | 13.33° C | 66% | 872.7 hPa | - | - | - | - |
| 1778079431 | 13.33° C | 66% | 872.8 hPa | - | - | - | - |
| 1778078531 | 13.89° C | 63% | 872.9 hPa | - | - | - | - |
| 1778077631 | 13.89° C | 63% | 872.8 hPa | - | - | - | - |
| 1778076731 | 14.44° C | 62% | 872.9 hPa | - | - | - | - |
| 1778075831 | 14.44° C | 64% | 873 hPa | - | - | - | - |
| 1778074931 | 15° C | 62% | 872.8 hPa | - | - | - | - |
| 1778074030 | 15° C | 65% | 872.9 hPa | - | - | - | - |
* Rain since midnight (hover to see other rain measurements)
** Current wind speed in m/s (hover to see current wind gust speed)